Preview of NWS' New Version of Forecast
This preview is not operational and should not be used for support decisions.

Regional Weather Roundup (RWR)

Issued by National Weather Service (NWS)

                            
000
ASPQ40 PGUM 210110
RWRPQ 
WEATHER ROUNDUP FOR THE MARIANAS AND MICRONESIA
NATIONAL WEATHER SERVICE TIYAN GU
1100 AM CHST WED AUG 21 2019

GUZ001>004-210200-
MARIANA ISLANDS-
  
CITY           SKY/WX    TMP DP  RH WIND       PRES   REMARKS
GUAM AIRPORT   PTSUNNY   84  73  70 NW5       29.89F HX  91           
ANDERSEN AFB   MOSUNNY   86  75  70 NE5       29.89F HX  95           
ROTA AIRPORT   MOSUNNY   82  72  69 E12       29.82F                  
TINIAN AP      NOT AVBL                                               
SAIPAN AP      MOSUNNY   88  75  66 E7        29.87F HX  97           

$$

PMZ161-210200-
REPUBLIC OF PALAU-
  
CITY           SKY/WX    TMP DP  RH WIND       PRES   REMARKS
KOROR AP       PTSUNNY   86  75  70 SW16G26   29.80S HX  95           
KOROR WSO      NOT AVBL                                               

$$

PMZ171>174-210200-
FEDERATED STATES OF MICRONESIA-
  
CITY           SKY/WX    TMP DP  RH WIND       PRES   REMARKS
YAP AIRPORT    PTSUNNY   86  79  79 VRB7      29.84S HX  99           
CHUUK AP       PTSUNNY   86  81  84 N9        29.78S HX 102           
POHNPEI AP     PTSUNNY   90  79  70 E12       29.75F HX 105           
POHNPEI WSO    PTSUNNY   88  77  70 NE9       29.80F HX 100           
KOSRAE AP      NOT AVBL                                               

$$

PMZ181-210200-
REPUBLIC OF THE MARSHALL ISLANDS-
  
CITY           SKY/WX    TMP DP  RH WIND       PRES   REMARKS
KWAJALEIN AP   MOSUNNY   82  79  89 S6        29.80F HX  93           
MAJURO AP      NOT AVBL                                               
MAJURO WSO     PTSUNNY   84  77  79 E6        29.77F HX  94           

$$